www.pogodaiklimat.ru

Погода и климат >> Архив погоды >> Россия >> Красноярский край >> Верхнеимбатск


АРХИВ ПОГОДЫ в Верхнеимбатске

Время (UTC), дата Ветер
(напр.,м/с)
 
Видим.   Явления Облачность Т
(С)
Тd
(С)
f
(%)
Тe
(С)
Тes
(С)
Комфортность P
(гПа)
Po
(гПа)
Тmin
(С)
Tmax
(С)
R
(мм)
R24
(мм)
S
(см)
12 14.04 ЮЗ 4 4000 м слаб. ливневой снег {метель} 10/8 600 м
[Cb cap As trans]
-8.2 -11.4 78 -15 -15 1010.4 1004.5 -6.8 2
15 14.04 З 3 н/о слаб. снег 10/3 600 м
[St As trans]
-8.8 -10.8 85 -15 -15 1011.5 1005.5
18 14.04 З 3
{12}
н/о слаб. снег 10/0
[Cs]
-12.4 -14.4 85 -18 -18 1012.8 1006.8
21 14.04 З 4 н/о позёмок {снег} 10/0
[Ci ing]
-13.2 -15.2 85 -21 -21 1014.1 1008.0
00 15.04 З 4 20 км позёмок {снег} 3/0
[Ac As]
-19.0 -21.6 80 -28 -27 1015.8 1009.6 -19.0 0.5 93
03 15.04 З 4 20 км {метель} 3/0
[Ci fib]
-17.0 -20.4 75 -25 -22 1016.3 1010.2 -19.6
06 15.04 З 3 20 км {метель} ясно -13.7 -18.9 65 -20 -13 1016.6 1010.5
09 15.04 З 3 20 км ясно -10.4 -17.7 55 -16 -12 1016.7 1010.7
12 15.04 З 2 20 км ясно -9.6 -19.6 44 -14 -13 1016.4 1010.4 -9.6
15 15.04 штиль 0 н/о 3/0
[Ci fib]
-16.2 -19.6 75 -16 -16 1014.8 1008.7
18 15.04 В 1 н/о ясно -22.4 -24.9 80 -26 -26 1013.8 1007.6
21 15.04 В 1 н/о 3/0
[Ci fib]
-20.8 -22.7 85 -24 -24 1013.1 1006.9
00 16.04 В 2 20 км 10/0
[Cs]
-18.0 -20.6 80 -23 -23 1012.5 1006.3 -24.4 93
03 16.04 ЮВ 2 20 км 10/10 600 м
[Sc]
-12.4 -18.6 60 -17 -17 1011.2 1005.2
06 16.04 ЮВ 3 20 км 10/0
[Cs]
-6.5 -17.4 42 -12 -6 1009.9 1004.1
09 16.04 ЮВ 4 20 км 8/3 600 м
[Cu hum Ac lent Cs]
-3.5 -16.2 37 -9 -7 1008.9 1003.1
12 16.04 ЮВ 3 20 км 10/0
[Cs]
-3.6 -15.7 39 -8 -8 1008.8 1003.0 -3.3
15 16.04 В 3 н/о 8/0
[Ci fib]
-5.0 -15.2 45 -10 -10 1008.5 1002.7
18 16.04 В 3 н/о 8/0
[Ci fib]
-7.2 -14.7 55 -13 -13 1008.0 1002.2
21 16.04 В 2 н/о 10/0
[As trans]
-8.1 -14.4 60 -12 -12 1007.7 1001.8
00 17.04 В 3 20 км 10/10
[Cb cap]
-7.5 -14.6 57 -13 -13 1006.3 1000.5 -8.1 93
03 17.04 В 4 20 км 10/0
[Cs]
-2.7 -10.2 56 -8 -5 1004.5 998.8
06 17.04 ЮВ 4
{10}
20 км 10/0
[Ac lent Cs]
+1.2 -11.2 39 -3 +1 1003.0 997.3
09 17.04 ЮВ 4
{10}
20 км 10/8 600 м
[Cb cap Cs]
+2.4 -8.5 44 -2 -1 1002.0 996.4
12 17.04 ЮВ 3 20 км 10/3 600 м
[Cb cap Cs]
+1.2 -4.0 68 -3 -2 1002.2 996.5 +2.7
15 17.04 В 1 н/о 8/3 600 м
[Sc Cs]
-1.5 -4.5 80 -4 -4 1001.1 995.4
18 17.04 СВ 2 н/о 3/3 600 м
[Sc]
-2.2 -5.1 80 -6 -6 999.3 993.7
21 17.04 В 2 н/о 10/10 600 м
[Sc]
-2.4 -4.3 87 -6 -6 997.7 992.1
00 18.04 СВ 2 4000 м слаб. ливневой снег 10/10 600 м
[Cb cap]
-2.0 -3.5 89 -6 -6 995.9 990.3 -2.9 0.3 88
03 18.04 СВ 4 20 км {ливн. осадки} 10/8 600 м
[Cb cap Ci fib]
+0.8 -3.8 71 -4 -4 994.3 988.7
06 18.04 С 5 20 км {ливн. осадки} 9/9 600 м
[Cb cap]
+2.8 -6.9 49 -2 -1 991.6 986.1
09 18.04 С 5 20 км 10/10 600 м
[Sc]
+3.6 -8.9 40 -1 -1 993.5 988.0
12 18.04 СЗ 6
{12}
20 км 8/6 600 м
[Cb cap Ac trans]
+1.4 -6.0 58 -4 -4 995.7 990.1 +3.6 0.0
15 18.04 З 2
{12}
н/о 8/5 600 м
[Cb cap Ac trans]
-3.7 -9.0 67 -8 -8 999.3 993.6
18 18.04 З 4
{12}
н/о 10/10 600 м
[Cb cap]
-7.1 -10.5 77 -14 -14 1002.2 996.4
21 18.04 З 7-11
{12}
н/о слаб. ливневой снег {метель} 10/10 600 м
[Cb cap]
-10.1 -11.4 90 -19 -19 1005.1 999.2
00 19.04 З 7-11
{13}
20 км позёмок {ливн. осадки} 5/3 600 м
[Cb cap Ci fib]
-14.8 -17.5 80 -25 -25 1008.6 1002.6 -14.8 1 87
03 19.04 З 5
{12}
20 км позёмок ясно -14.0 -18.3 70 -23 -20 1010.7 1004.7 -16.0
06 19.04 З 5 20 км позёмок ясно -8.3 -17.2 49 -16 -11 1011.5 1005.5
09 19.04 З 4 20 км {метель} ясно -4.8 -17.6 36 -10 -6 1012.0 1006.1
12 19.04 З 3 20 км {метель} ясно -3.5 -19.3 28 -8 -7 1012.3 1006.4 -3.5
15 19.04 ЮЗ 1 н/о 10/0
[Cs]
-5.3 -20.4 29 -7 -7 1012.2 1006.3
18 19.04 В 1 н/о 9/9 600 м
[Sc]
-7.2 -12.5 66 -9 -9 1010.3 1004.5
21 19.04 В 1 н/о 10/10 600 м
[Cb cap]
-9.0 -12.4 76 -11 -11 1008.6 1002.7
00 20.04 В 2 10 км слаб. снег 10/6 600 м
[Sc As trans]
-8.0 -10.3 83 -12 -12 1006.4 1000.5 -9.3 0.2 87
03 20.04 В 3 20 км {снег} 10/10 600 м
[Cb cap]
-4.2 -8.0 75 -9 -9 1005.0 999.2
06 20.04 В 3 4000 м ливневой снег 10/10 600 м
[Cb cap]
-1.7 -5.1 78 -7 -7 1003.3 997.6
09 20.04 ЮВ 2 4000 м слаб. ливневой снег 10/10 600 м
[Cb cap]
-0.2 -2.0 88 -4 -4 1002.7 997.0
12 20.04 ЮЗ 3 20 км {ливн. осадки} 10/6 600 м
[Cb cap As op]
-2.7 -8.4 65 -7 -7 1003.3 997.6 +0.2 5
15 20.04 З 2 н/о 10/10 600 м
[Cb cap]
-4.0 -7.7 75 -8 -8 1003.3 997.5
18 20.04 З 4 н/о слаб. ливневой снег 10/10 600 м
[Cb cap]
-5.9 -7.8 86 -12 -12 1003.2 997.4
21 20.04 З 5 н/о ливневой снег {метель} 10/10 600 м
[Cb cap]
-7.5 -9.2 88 -15 -15 1002.7 996.9
00 21.04 З 5-10
{10}
4000 м ливневой снег {метель} 10/10 600 м
[Cb cap]
-9.5 -12.1 81 -17 -17 1003.5 997.6 -9.5 4 99
03 21.04 З 6
{10}
20 км позёмок {ливн. осадки} 10/6 600 м
[Sc Ac trans Ci fib]
-10.8 -14.4 75 -19 -19 1004.7 998.8 -10.8
06 21.04 З 6
{10}
20 км позёмок {ливн. осадки} ясно -7.2 -13.6 60 -15 -11 1005.8 1000.0
09 21.04 З 6
{10}
20 км позёмок ясно -4.6 -12.7 53 -12 -9 1007.9 1002.1

 

Местоположение метеостанции Верхнеимбатск (Красноярский край, Россия): широта 63.15 долгота 87.95 высота над уровнем моря 45 м.

В архиве по умолчанию представлена погода в Верхнеимбатске за последнюю неделю. Архивные данные за месяц целиком и за предыдущие месяцы, начиная с января 2011 года, Вы можете получить, выбрав интересующий диапазон дат из раскрывающегося списка и нажав кнопку "Ввод!".


*Определитесь, кто Вы:
робот инопланетянин человек

Внимание! Время в таблицах - всемирное. Для получения местного времени необходимо прибавить поправку, которая равна 7 ч.

Смотрите также архив погоды в соседних городах и на ближайших метеорологических станциях:

Погода в Бахте (Красноярский край, Россия) (93 км)
Погода в Келлоге (Красноярский край, Россия) (113 км)
Погода в Верещагино (Красноярский край, Россия) (122 км)
Погода в Бору (Красноярский край, Россия) (203 км)
Погода в Кузьмовке (Эвенкия, Россия) (232 км)
Погода в Ворогово (Красноярский край, Россия) (251 км)
Погода в Туруханске (Красноярский край, Россия) (293 км)
Погода в Большом Пороге (Эвенкия, Россия) (294 км)
Погода в Тольке (Ямало-Ненецкий АО, Россия) (305 км)
Погода в Тутончанах (Эвенкия, Россия) (310 км)

Пояснения к столбцам:

Ветер - указаны скорость ветра в м/с - средняя за 10 мин, порывы в срок и между сроками (в фигурных скобках) и направление, откуда дует ветер: С - северный, СВ - северо-восточный, В - восточный, ЮВ - юго-восточный, Ю - южный, ЮЗ - юго-западный, З - западный, СЗ - северо-западный.
Видимость - горизонтальная дальность видимости в метрах или километрах. При видимости от 1 до 10 км при отсутствии осадков обычно наблюдается дымка, при ухудшении видимости до 1 км и менее - туман. В сухую погоду видимость может ухудшаться дымом, пылью или мглою.
Явления - указаны атмосферные явления, наблюдавшиеся в срок или в последний час перед сроком; фигурными скобками обозначены явления, наблюдавшиеся между сроками (за 1-3 часа до срока); квадратными скобками обозначены град или гололедные отложения с указанием их диаметра в мм.
Облачность - указаны через наклонную черту общая и нижняя облачность в баллах и высота нижней границы облаков в метрах; квадратными скобками обозначены формы облаков: Ci - перистые, Cs - перисто-слоистые, Cc - перисто-кучевые, Ac - высококучевые, As - высокослоистые, Sc - слоисто-кучевые, Ns - слоисто-дождевые, Cu - кучевые, Cb - кучево-дождевые. Подробнее классификацию облаков см. в Атласе облаков (PDF).
T - Температура воздуха - температура, измеренная на высоте 2 м над землей.
Td - Температура точки росы - температура, при понижении до которой содержащийся в воздухе водяной пар достигнет насыщения.
f - Относительная влажность воздуха - влажноcть воздуха, измеренная на высоте 2 м над землей.
Te - Эффективная температура - температура, которую ощущает одетый по сезону человек в тени. Характеристика душности погоды. При расчете учитывается влияние влажности воздуха и скорости ветра на теплоощущения человека.
Tes - Эффективная температура на солнце - температура, которую ощущает человек, с поправкой на солнечный нагрев. Характеристика знойности погоды. Зависит от высоты солнца над горизонтом, облачности и скорости ветра. Ночью, в пасмурную погоду, а также при ветре 12 м/с и более поправка равна нулю.
P - Атмосферное давление - приведенное к уровню моря атмосферное давление.
Po - Атмосферное давление - измеренное на уровне метеостанции атмосферное давление.
Tmin - Минимальная температура - минимум температуры воздуха на высоте 2 м над землей.
Tmax - Максимальная температура - максимум температуры воздуха на высоте 2 м над землей.
R - Количество осадков - Количество выпавших осадков за период времени, мм. При наведении курсора мыши на число - период времени, за который выпало указанное количество осадков.
R24 - Количество осадков - Количество выпавших осадков за 24 часа, мм.
S - Снежный покров - Высота снежного покрова, см. При наведении курсора мыши на число - состояние снежного покрова и степень покрытия местности в баллах.